Satellite-Ground Cal/Val Site Overpasses Predictions

Prediction of Satellite NPP Overpassing Cal/Val Site: Antarctic Dome C

Ground Cal/Val Site Location: Latitude: -75.10, Longitude: 123.35; Satellite-Ground Site NADIR distance within 100 km.

Table of predicted overpasses for the next 14.0 days since TLE Epoch: 2/9/2015
Interval Starting Time Ending Time Minimum Distance Time Minimum Distance (km)
1 02/10/2015 14:42:36 02/10/2015 14:42:47 02/10/2015 14:42:41 91.33
2 02/11/2015 07:44:06 02/11/2015 07:44:33 02/11/2015 07:44:19 39.30
3 02/12/2015 07:25:19 02/12/2015 07:25:40 02/12/2015 07:25:29 70.74
4 02/14/2015 15:07:32 02/14/2015 15:07:57 02/14/2015 15:07:45 52.90
5 02/15/2015 14:48:42 02/15/2015 14:49:06 02/15/2015 14:48:54 56.14
6 02/16/2015 07:50:23 02/16/2015 07:50:42 02/16/2015 07:50:33 74.83
7 02/17/2015 07:31:30 02/17/2015 07:31:57 02/17/2015 07:31:43 33.19
8 02/19/2015 15:13:52 02/19/2015 15:14:04 02/19/2015 15:13:58 90.90
9 02/20/2015 14:54:53 02/20/2015 14:55:22 02/20/2015 14:55:08 20.29


NCC Satellite Cal/Val Overpasses Prediction Service
